Regional Weather Roundup
Issued by NWS

Home | Current Version | Previous Version | Graphics & Text | Print | Product List | Glossary On
Versions: 1 2 3 4 5 6 7 8 9 10 11 12 13 14 15 16 17 18 19 20 21 22 23 24 25 26 27 28 29 30 31 32 33 34 35 36 37 38 39 40 41 42 43 44 45 46 47 48 49 50
000
ASUS44 KMEG 081910
RWRTN
TENNESSEE HOURLY STATE WEATHER ROUNDUP
NATIONAL WEATHER SERVICE MEMPHIS TN
100 PM CST THU DEC 08 2016

TNZ002-004-019-021-049-052-054-088>092-082000-
WEST TENNESSEE

CITY           SKY/WX    TMP DP  RH WIND       PRES   REMARKS
MEMPHIS INTL   CLOUDY    37  17  44 N8G16     30.49F WCI  31
NWS MEMPHIS      N/A     37 N/A N/A MISG        N/A
JACKSON        MOSUNNY   37  18  46 N13       30.48F WCI  29
DYERSBURG      CLOUDY    34  14  44 N9G16     30.50S WCI  26
UNION CITY     SUNNY     34  16  47 NW12      30.47F WCI  25
PARIS          SUNNY     30  12  47 VRB7      30.45F WCI  23
HUNTINGDON     SUNNY     36  14  41 NW10      30.45F WCI  28
LEXINGTON      SUNNY     37  12  35 VRB6      30.43F WCI  33
$$

TNZ008-025-027-028-033-062-065-066-082000-
NORTH MIDDLE TENNESSEE

CITY           SKY/WX    TMP DP  RH WIND       PRES   REMARKS
NASHVILLE      PTSUNNY   40  15  36 N12       30.40F WCI  33
PORTLAND       SUNNY     36  19  51 W13G20    30.39S WCI  27
CLARKSVILLE    SUNNY     35  13  40 NW13      30.43F WCI  26
SMYRNA         MOSUNNY   41  18  39 NW12      30.41S
GALLATIN       SUNNY     37  19  48 NW10      30.43S WCI  30
CROSSVILLE     SUNNY     38  17  42 NW9G17    30.28F WCI  31
$$

TNZ061-075-076-078-094-096-097-082000-
SOUTH MIDDLE TENNESSEE

CITY           SKY/WX    TMP DP  RH WIND       PRES   REMARKS
FAYETTEVILLE   SUNNY     41  21  45 N8        30.36F
TULLAHOMA      SUNNY     37  18  44 NW10      30.35F WCI  30
WINCHESTER     SUNNY     39  21  48 N8        30.35F WCI  34
MCMINNVILLE    SUNNY     39  19  45 NW5         N/A
COLUMBIA       SUNNY     39  19  45 NW8       30.38S WCI  34
SHELBYVILLE    SUNNY     43  21  42 NW13      30.37F
$$

TNZ017-018-042-046-047-082000-
NORTHEAST TENNESSEE

CITY           SKY/WX    TMP DP  RH WIND       PRES   REMARKS
TRI CITIES     MOSUNNY   43  19  38 W14       30.19S
ELIZABETHTON   DRIZZLE   41  18  38 NW10G25   30.17F
$$

TNZ012-013-036-069-073-074-082000-
CENTRAL EAST TENNESSEE

CITY           SKY/WX    TMP DP  RH WIND       PRES   REMARKS
KNOXVILLE      NOT AVBL
OAK RIDGE      SUNNY     44  17  33 VRB6      30.30S
DOWNTOWN KNOXV SUNNY     46  18  31 W9        30.28F
GATLINBURG     SUNNY     43  19  39 NW10      30.26F
MORRISTOWN     SUNNY     41  18  38 NW14G21   30.23S
JACKSBORO      SUNNY     41  16  36 CALM      30.30F
$$

TNZ083-085-099-082000-
SOUTHEAST TENNESSEE

CITY           SKY/WX    TMP DP  RH WIND       PRES   REMARKS
CHATTANOOGA    PTSUNNY   43  16  33 N14       30.33F
$$

SKY/WX REPORTED AS FAIR MEANS FEW OR NO CLOUDS BELOW
12 THOUSAND FEET.




USA.gov is the U.S. government's official web portal to all federal, state and local government web resources and services.